Weather History for Austin, TX

Change the Weather History Date:

Thursday, January 16, 2014

  Actual Average Record
Temperature  
Mean Temperature 56 °F 51 °F  
Max Temperature 72 °F 61 °F 82 °F (1943)
Min Temperature 40 °F 41 °F 18 °F (1930)
Degree Days  
Heating Degree Days 9 14  
Month to date heating degree days 216 224  
Since 1 July heating degree days 958 836  
Cooling Degree Days 0 0  
Month to date cooling degree days 0 0  
Year to date cooling degree days 0 0  
Growing Degree Days 6 (Base 50)    
Moisture  
Dew Point 27 °F    
Average Humidity 38    
Maximum Humidity 55    
Minimum Humidity 20    
Precipitation  
Precipitation 0.00 in 0.08 in 2.58 in (2004)
Month to date precipitation 0.27 1.16  
Year to date precipitation 0.27 1.16  
Snow  
Snow 0.00 in - - ()
Month to date snowfall 0.0  
Since 1 July snowfall 0.0  
Snow Depth 0.00 in    
Sea Level Pressure  
Sea Level Pressure 30.13 in    
Wind  
Wind Speed 4 mph (WNW)    
Max Wind Speed 14 mph    
Max Gust Speed 20 mph    
Visibility 10 miles    
Events      
T = Trace of Precipitation, MM = Missing Value Source: NWS Daily Summary

Daily Weather History Graph

Daily Weather History Graph

Search for Another Location

Airport:

Trip Planner

Search our weather history database for the weather conditions in past years. The results will help you decide how hot, cold, wet, or windy it might be!

Date:

Astronomy

Jan. 16, 2014 Rise Set
Actual Time 7:28 AM CST 5:53 PM CST
Civil Twilight 7:02 AM CST 6:19 PM CST
Nautical Twilight 6:32 AM CST 6:49 PM CST
Astronomical Twilight 6:03 AM CST 7:18 PM CST
Moon 6:39 PM CST (1/16) 7:28 AM CST (1/16)
Length of Visible Light 11h 17m
Length of Day
10h 25m
Full, 100% of the Moon is Illuminated
Jan 16
Full
Jan 23
Last Quarter
Jan 30
New
Feb 6
First Quarter
Feb 14
Full

Hourly Weather History & Observations

Time (CST) Temp. Windchill Dew Point Humidity Pressure Visibility Wind Dir Wind Speed Gust Speed Precip Events Conditions
12:51 AM 43.0 °F - 26.1 °F 51% 30.15 in 10.0 mi Calm Calm - N/A   Clear
1:51 AM 41.0 °F - 27.0 °F 57% 30.15 in 10.0 mi Calm Calm - N/A   Clear
2:51 AM 42.1 °F - 26.1 °F 53% 30.14 in 10.0 mi Calm Calm - N/A   Clear
3:51 AM 45.0 °F 43.5 °F 24.1 °F 44% 30.12 in 10.0 mi SSW 3.5 mph - N/A   Clear
4:51 AM 46.0 °F 43.9 °F 23.0 °F 40% 30.09 in 10.0 mi SSW 4.6 mph - N/A   Clear
5:51 AM 45.0 °F 42.6 °F 24.1 °F 44% 30.08 in 10.0 mi SW 4.6 mph - N/A   Clear
6:51 AM 44.1 °F - 24.1 °F 45% 30.09 in 10.0 mi Calm Calm - N/A   Clear
7:51 AM 44.1 °F - 25.0 °F 47% 30.13 in 10.0 mi Calm Calm - N/A   Clear
8:51 AM 50.0 °F - 25.0 °F 38% 30.15 in 10.0 mi SW 3.5 mph - N/A   Clear
9:51 AM 57.0 °F - 27.0 °F 32% 30.16 in 10.0 mi Variable 6.9 mph 16.1 mph N/A   Clear
10:51 AM 62.1 °F - 25.0 °F 24% 30.16 in 10.0 mi SSW 11.5 mph 18.4 mph N/A   Clear
11:51 AM 64.9 °F - 27.0 °F 24% 30.14 in 10.0 mi SW 9.2 mph - N/A   Clear
12:51 PM 68.0 °F - 28.9 °F 23% 30.09 in 10.0 mi Variable 4.6 mph - N/A   Clear
1:51 PM 71.1 °F - 30.0 °F 22% 30.07 in 10.0 mi Variable 3.5 mph - N/A   Clear
2:51 PM 70.0 °F - 28.9 °F 22% 30.06 in 10.0 mi Variable 3.5 mph - N/A   Clear
3:51 PM 71.1 °F - 28.9 °F 21% 30.07 in 10.0 mi Variable 5.8 mph - N/A   Clear
4:51 PM 70.0 °F - 28.9 °F 22% 30.07 in 10.0 mi Calm Calm - N/A   Clear
5:51 PM 66.0 °F - 28.9 °F 25% 30.09 in 10.0 mi NE 3.5 mph - N/A   Clear
6:51 PM 62.1 °F - 30.0 °F 30% 30.11 in 10.0 mi Calm Calm - N/A   Clear
7:51 PM 57.9 °F - 30.9 °F 36% 30.13 in 10.0 mi NNE 3.5 mph - N/A   Clear
8:51 PM 57.9 °F - 30.0 °F 35% 30.17 in 10.0 mi NNE 5.8 mph - N/A   Clear
9:51 PM 57.9 °F - 30.0 °F 35% 30.19 in 10.0 mi NNE 9.2 mph - N/A   Clear
10:51 PM 55.9 °F - 30.0 °F 37% 30.20 in 10.0 mi NNE 6.9 mph - N/A   Clear
11:51 PM 55.9 °F - 30.0 °F 37% 30.21 in 10.0 mi NNE 6.9 mph - N/A   Clear